SCP
0 0 0 0 0 0 0 0 0 0 0 0 0 0 0 0 0 0 0 0 0 0 0 0 0 0 0 0 0 0 0 0 0 0 0 0 0 0
0 0 0 0 0 0 0 0 0 0 0 0 0 0 0 0 0 0 0 0 0 0 0 0 0 0 0 0 0 0 0 0 0 0 0 0 0 0
0 0 0 0 0 0 0 0 0 0 0 0 0 0 0 0 0 0 0 0 0 0 0 0 0 0 0 0 0 0 0 0 0 0 0 0 0 0
0 0 0 0 0 0 0 0 0 0 0 0 0 0 0 0 0 0 0 0 0 0 0 0 0 0 0 0 0 0 0 0 0 0 0 0 0 0
0 0 0 0 0 0 0 0 0 0 0 0 0 0 0 0 0 0 0 0 0 0 0 0 0 0 0 0 0 0 0 0 0 0 0 0 0 0
0 0 0 0 0 0 0 0 0 0 0 0 0 0 0 0 0 0 0 0 0 0 0 0 0 0 0 0 0 0 0 0 0 0 0 0 0 0
0 0 0 0 0 0 0 0 0 0 0 0 0 0 0 0 0 0 0 0 0 0 0 0 0 0 0 0 0 0 0 0 0 0 0 0 0 0
0 0 0 0 0 0 0 0 0 0 0 0 0 0 0 0 0 0 0 0 0 0 0 0 0 0 0 0 0 0 0 0 0 0 0 0 0 0
0 0 0 0 0 0 0 0 0 0 0 0 0 0 0 0 0 0 0 0 0 0 0 0 0 0 0 0 0 0 0 0 0 0 0 0 0 0
0 0 0 0 0 0 0 0 0 0 0 0 0 0 0 0 0 0 0 0 0 0 0 0 0 0 0 0 0 0 0 0 0 0 0 0 0 0
0 0 0 0 0 0 0 0 0 0 0 0 0 0 0 0 0 0 0 0 0 0 0 0 0 0 0 0 0 0 0 0 0 0 0 0 0 0
0 0 0 0 0 0 0 0 0 0 0 0 0 0 0 0 0 0 0 0 0 0 0 0 0 0 0 0 0 0 0 0 0 0 0 0 0 0
0 0 0 0 0 0 0 0 0 0 0 0 0 0 0 0 0 0 0 0 0 0 0 0 0 0 0 0 0 0 0 0 0 0 0 0 0 0
0 0 0 0 0 0 0 0 0 0 0 0 0 0 0 0 0 0 0 0 0 0 0 0 0 0 0 0 0 0 0 0 0 0 0 0 0 0
0 0 0 0 0 0 0 0 0 0 0 0 0 0 0 0 0 0 0 0 0 0 0 0 0 0 0 0 0 0 0 0 0 0 0 0 0 0
0 0 0 0 0 0 0 0 0 0 0 0 0 0 0 0 0 0 0 0 0 0 0 0 0 0 0 0 0 0 0 0 0 0 0 0 0 0
0 0 0 0 0 0 0 0 0 0 0 0 0 0 0 0 0 0 0 0 0 0 0 0 0 0 0 0 0 0 0 0 0 0 0 0 0 0
0 0 0 0 0 0 0 0 0 0 0 0 0 0 0 0 0 0 0 0 0 0 0 0 0 0 0 0 0 0 0 0 0 0 0 0 0 0
0 0 0 0 0 0 0 0 0 0 0 0 0 0 0 0 0 0 0 0 0 0 0 0 0 0 0 0 0 0 0 0 0 0 0 0 0 0
0 0 0 0 0 0 0 0 0 0 0 0 0 0 0 0 0 0 0 0 0 0 0 0 0 0 0 0 0 0 0 0 0 0 0 0 0 0
0 0 0 0 0 0 0 0 0 0 0 0 0 0 0 0 0 0 0 0 0 0 0 0 0 0 0 0 0 0 0 0 0 0 0 0 0 0
0 0 0 0 0 0 0 0 0 0 0 0 0 0 0 0 0 0 0 0 0 0 0 0 0 0 0 0 0 0 0 0 0 0 0 0 0 0
0 0 0 0 0 0 0 0 0 0 0 0 0 0 0 0 0 0 0 0 0 0 0 0 0 0 0 0 0 0 0 0 0 0 0 0 0 0
Wind_Speed
6 6 5 5 5 6 6 6 7 8 7 6 4 4 4 4 8 5 5 11 13 12 11 9 9 9 10 12 14 16 17 18 19 20 21 21 22 22
5 7 7 6 6 6 6 6 7 9 8 4 5 6 7 8 11 6 6 15 12 11 10 8 8 10 12 15 17 19 20 21 22 22 22 23 23 23
8 8 9 9 7 6 6 6 6 7 10 7 5 7 7 8 8 6 6 4 4 7 6 6 9 12 15 17 20 22 23 24 25 25 24 24 24 23
10 9 11 9 8 7 6 7 7 7 8 10 7 6 7 8 8 7 4 2 2 2 3 7 10 14 17 20 23 25 26 27 27 28 27 26 25 23
10 10 11 10 10 7 6 6 6 7 6 8 9 7 6 6 6 4 1 1 1 1 4 7 11 16 20 23 25 28 29 29 30 30 29 26 24 22
10 10 10 10 10 7 6 6 6 7 7 9 9 8 7 5 4 3 2 2 1 2 4 7 11 17 21 25 30 32 32 31 31 30 28 25 22 19
10 10 10 15 15 9 8 8 8 8 9 9 9 8 7 5 4 2 3 3 1 2 3 4 7 9 14 23 29 29 26 27 28 27 26 22 19 19
10 9 11 12 13 16 17 17 16 13 12 11 9 9 8 5 3 3 4 3 1 1 2 5 7 10 13 17 19 6 9 17 23 24 24 23 25 28
10 9 10 11 13 8 14 19 18 21 21 15 12 11 8 5 5 5 3 3 2 2 2 4 7 9 13 18 26 20 20 23 26 29 31 34 35 35
9 10 11 12 10 11 13 13 13 14 15 11 9 8 6 4 5 6 8 7 4 3 3 4 6 7 12 14 32 33 32 33 34 37 39 40 39 38
10 10 11 11 13 17 13 12 14 12 12 8 3 4 8 11 11 9 7 6 4 3 4 3 4 6 9 13 21 36 38 37 37 38 40 41 40 36
9 10 13 12 16 17 11 10 12 10 7 3 8 11 10 11 10 6 5 5 4 3 3 2 4 5 6 10 13 15 20 32 36 35 34 32 30 22
10 9 9 16 18 17 13 9 10 8 2 6 8 9 9 8 8 7 6 3 4 4 2 2 3 4 4 5 10 13 13 14 16 22 28 30 26 20
9 8 9 16 17 15 10 10 7 1 4 6 8 8 8 8 7 8 8 8 8 9 7 6 4 4 6 9 9 10 12 12 13 14 14 23 26 27
9 15 16 15 13 9 11 11 5 4 5 7 8 8 8 8 8 8 9 11 12 10 9 7 6 6 7 11 11 10 10 10 10 11 11 11 11 12
10 12 14 12 9 9 8 6 5 5 6 8 9 9 8 8 7 6 7 7 8 8 8 9 8 8 9 10 10 10 7 7 7 9 10 10 9 8
10 6 5 6 7 7 6 6 5 5 7 8 8 8 8 8 7 5 5 6 7 7 7 7 7 7 8 7 9 10 10 10 9 8 9 10 9 7
9 6 6 6 6 7 7 6 6 6 7 7 8 8 8 8 7 5 5 6 6 7 7 6 7 9 10 10 10 10 10 9 8 8 7 9 9 7
7 7 7 7 6 6 6 6 6 6 6 7 7 7 7 8 7 6 5 5 6 6 6 5 5 6 10 10 8 8 10 8 8 8 7 7 7 5
8 7 7 7 7 6 6 6 6 6 6 7 7 7 7 7 7 6 5 5 5 6 6 6 6 5 6 6 5 5 7 9 9 8 6 6 6 8
8 8 7 7 6 6 6 6 7 7 7 7 7 7 7 6 6 6 5 7 5 5 6 5 5 8 6 6 7 5 6 8 8 8 6 6 4 3
8 8 7 7 6 6 6 6 7 7 7 7 7 6 6 6 6 6 5 4 4 5 6 5 6 7 6 7 7 5 5 6 9 9 6 4 5 5
7 7 7 6 6 5 5 6 7 6 6 6 6 6 6 5 4 4 4 5 6 7 7 6 6 6 7 7 7 5 6 5 3 3 5 4 8 13
Wind_Direction
307 298 288 278 274 269 265 267 279 289 288 278 276 270 268 270 276 273 259 270 263 236 218 216 229 247 259 265 266 266 265 264 262 260 259 258 257 257
299 296 289 282 277 271 265 262 262 273 281 266 271 278 284 288 291 285 271 279 255 222 209 220 242 258 267 271 271 269 266 263 260 257 254 253 252 251
301 299 292 286 279 273 266 264 261 264 276 279 271 280 278 278 285 281 274 254 224 204 214 245 263 271 275 276 275 271 267 262 258 254 251 248 245 244
306 302 297 297 284 275 269 264 263 259 268 282 287 283 274 272 274 275 267 218 166 191 275 284 287 288 287 283 277 271 266 259 254 249 245 242 240 239
302 299 296 297 294 284 275 273 272 274 265 279 283 277 273 268 268 262 182 81 86 2 324 311 307 302 295 287 279 272 263 253 245 240 237 233 230 225
300 296 294 293 288 286 290 283 285 284 277 276 278 276 271 263 248 226 152 92 49 4 342 327 315 310 303 296 287 274 259 245 233 226 221 217 211 209
303 299 299 304 304 311 310 299 294 287 283 277 274 272 265 254 237 178 141 131 69 346 308 321 320 316 315 307 296 275 250 228 212 205 199 192 188 178
302 303 306 305 307 315 312 305 296 289 283 274 268 260 256 241 205 154 140 149 152 332 329 339 342 335 327 318 318 298 177 169 167 166 164 158 146 135
301 304 309 306 309 300 307 306 297 289 282 273 260 250 242 217 172 150 134 112 94 343 326 1 350 343 338 347 18 62 91 113 126 131 128 123 118 116
300 298 299 301 301 311 310 300 295 293 288 280 252 238 221 179 149 132 125 107 81 24 13 31 354 349 350 5 30 54 72 86 97 104 106 107 106 106
305 304 302 299 306 315 311 302 301 302 307 309 241 155 140 133 132 126 131 127 103 40 16 41 346 344 5 19 31 50 63 74 83 91 97 100 101 97
312 307 307 307 312 315 309 299 300 307 321 29 80 89 98 101 99 110 128 129 116 95 24 36 352 350 21 25 31 39 55 66 72 77 83 89 94 98
313 311 309 313 315 313 308 297 294 298 359 84 86 86 84 81 73 67 61 73 92 94 96 56 33 28 54 53 46 44 49 57 63 67 71 75 80 92
307 305 305 313 317 316 317 319 323 46 91 91 90 89 88 83 80 78 76 73 78 88 83 78 83 77 85 83 72 60 57 58 65 71 74 77 79 81
312 317 324 325 327 327 334 347 26 80 93 94 91 90 91 93 92 88 85 87 87 86 80 70 78 78 80 91 92 82 78 66 63 73 77 78 83 88
326 323 326 331 341 342 348 8 44 73 90 95 96 97 95 93 90 91 98 99 98 89 72 71 71 78 89 89 93 89 78 85 82 77 82 82 80 82
328 328 341 346 358 2 8 23 49 76 90 99 102 102 98 95 89 78 84 86 89 91 89 87 83 78 75 82 92 91 93 88 84 83 86 83 68 65
347 350 356 2 7 9 13 27 49 74 90 99 102 103 105 105 101 87 80 83 85 82 87 95 100 96 88 71 68 93 89 89 87 85 89 93 80 56
359 359 3 6 10 14 19 32 52 73 89 96 100 101 104 107 109 104 92 85 82 78 76 76 80 97 105 99 70 85 105 99 92 83 75 78 81 61
1 0 2 5 11 20 27 35 52 73 86 91 95 99 104 109 112 111 104 100 90 84 77 67 65 69 86 95 91 65 88 114 111 103 88 77 74 70
355 356 359 4 13 22 31 39 52 69 81 87 93 99 102 104 106 109 112 111 98 90 88 80 82 89 79 74 80 61 42 66 103 115 111 97 80 59
352 354 358 7 17 25 34 43 51 61 71 81 89 95 96 97 100 104 111 113 104 101 99 93 86 85 84 93 95 86 73 73 83 83 67 108 141 148
354 355 359 8 19 28 35 45 53 59 65 73 81 89 97 95 93 93 101 111 113 111 107 99 92 92 96 103 103 95 96 92 73 49 12 33 122 111